Weather Roundup
Issued by NWS

Home | Current Version | Previous Version | Text Only | Print | Product List | Glossary On
Versions: 1 2 3 4 5 6 7 8 9 10 11 12 13 14 15 16 17 18 19 20 21 22 23 24 25 26 27 28 29 30 31 32 33 34 35 36 37 38 39 40 41 42 43 44 45 46 47 48 49 50
328
NZUS93 KARX 280510
HRRWXR

CURRENT HOURLY OBSERVATIONS ACROSS
MUCH OF THE UPPER MISSISSIPPI VALLEY
NATIONAL WEATHER SERVICE LA CROSSE WI
1200 AM CDT SAT MAY 28 2016


...SOUTHEAST MINNESOTA...


CITY           SKY/WX    TMP DP  RH WIND       PRES   REMARKS
ROCHESTER      CLOUDY    62  62 100 CALM      29.77S
ROCHESTER/MAYO FAIR      63  64 100 CALM      29.77S
WINONA         MOCLDY    66  64  94 CALM      29.75F
AUSTIN         CLOUDY    63  61  94 CALM      29.76R
ALBERT LEA     CLOUDY    63  63 100 CALM      29.77R
DODGE CENTER   CLOUDY    61  59  94 CALM      29.77S FOG
PRESTON        CLOUDY    62  60  94 N5        29.76F FOG
OWATONNA       CLOUDY    61  57  88 CALM      29.77S FOG
FARIBAULT      MOCLDY    61  59  94 CALM      29.77F
$$

...ELSEWHERE IN MINNESOTA...


CITY           SKY/WX    TMP DP  RH WIND       PRES   REMARKS
MINNEAPOLIS    CLOUDY    64  60  87 NW5       29.77R
INTNL FALLS    CLOUDY    61  54  77 E5        29.85F
DULUTH         CLOUDY    54  52  93 E12       29.80F FOG
RED WING       CLOUDY    61  61 100 CALM      29.75R FOG
REDWOOD FALLS  MOCLDY    62  60  93 NE3       29.76R
MANKATO        CLOUDY    63  59  88 SE6       29.77S
WORTHINGTON    MOCLDY    64  60  87 E8        29.77S
FAIRMONT       CLOUDY    66  61  82 E7        29.77S
$$

...SOUTHWEST WISCONSIN...


CITY           SKY/WX    TMP DP  RH WIND       PRES   REMARKS
LA CROSSE      MOCLDY    68  66  93 E5        29.74F
PRAIRIE DU CHI CLOUDY    66  64  91 CALM      29.75S
BOSCOBEL       CLOUDY    66  64  93 NE3       29.76F
LONE ROCK      CLOUDY    70  66  87 SE5       29.78S
PLATTEVILLE    CLOUDY    70  68  93 SE6       29.78F
FORT MC COY    CLOUDY    65  64  96 CALM      29.77S
CAMP DOUGLAS   MOCLDY    66 N/A N/A SE3       29.77S
MAUSTON-NEW LI MOCLDY    68  67  97 SE3       29.77S
VIROQUA        FAIR      65  65  97 SE3       29.78S
WIS DELLS      CLOUDY    69  65  88 S6        29.79F
$$

...ELSEWHERE IN WISCONSIN...


CITY           SKY/WX    TMP DP  RH WIND       PRES   REMARKS
MILWAUKEE      LGT RAIN  70  65  84 S13       29.84S
MADISON        PTCLDY    71  66  84 S9        29.79F
GREEN BAY      NOT AVBL
EAU CLAIRE     CLOUDY    64  63  96 CALM      29.75S
BLACK RVR FLS  FOG       62  62 100 CALM      29.76S VSB 1/2
MEDFORD        CLOUDY    65  65 100 SE7       29.79R
WAUSAU         LGT RAIN  67  65  93 SE10      29.78S FOG
WIS RAPIDS     CLOUDY    68  65  90 SE7       29.79F
MARSHFIELD     CLOUDY    68  65  90 S9        29.78S
RICE LAKE      CLOUDY    59  58  94 CALM      29.79R
$$

...NORTHEAST IOWA...


CITY           SKY/WX    TMP DP  RH WIND       PRES   REMARKS
WATERLOO       CLOUDY    67  64  90 CALM      29.75S
DUBUQUE        MOCLDY    70  67  90 S9        29.77F
DECORAH        CLOUDY    66  66 100 CALM      29.76R FOG
MASON CITY     CLOUDY    63  62  97 W3        29.77S
CHARLES CITY   CLOUDY    64  64 100 SE6       29.78R
OELWEIN        CLOUDY    68  68 100 SE9       29.78R
$$

...ELSEWHERE IN IOWA...


CITY           SKY/WX    TMP DP  RH WIND       PRES   REMARKS
DES MOINES     LGT RAIN  68  64  87 W3        29.76S
IOWA CITY      RAIN      65  64  97 CALM      29.76F FOG
FORT DODGE     CLOUDY    68  61  77 SE6       29.78S
MARSHALLTOWN   LGT RAIN  67  65  93 E3        29.75F
CEDAR RAPIDS   RAIN      64  64 100 SW5       29.75F FOG
$$

...NORTHERN ILLINOIS...


CITY           SKY/WX    TMP DP  RH WIND       PRES   REMARKS
CHICAGO-OHARE  CLOUDY    68  65  90 S14       29.87F
CHICAGO-MIDWAY CLOUDY    71  65  81 S10       29.88S
MOLINE         RAIN      71  66  84 S16G29    29.76S
ROCKFORD       LGT RAIN  71  65  81 S17       29.85R
PEORIA         PTCLDY    70  66  87 S13       29.82F
$$

NOTE: "FAIR" INDICATES FEW OR NO CLOUDS BELOW 12,000 FEET WITH NO
SIGNIFICANT WEATHER AND/OR OBSTRUCTIONS TO VISIBILITY. WIND
SPEEDS ARE IN MILES-PER-HOUR.




USA.gov is the U.S. government's official web portal to all federal, state and local government web resources and services.